Location: Austin
(30.3000°N, 97.7500°W)
Time: 23:02:16
(UTC-05:00)

Okean O Rocket - Pass Details

Date: 06 May 2026
Orbit: 613 x 635 km, 98.0° (Epoch: 13 May)

Event Time Altitude Azimuth Distance (km) Brightness Sun altitude
Exits shadow 21:49:24 22° 63° (ENE) 1,341 3.0 -19.5°
Drops below altitude 10° 21:52:20 10° 20° (NNE) 1,974 4.3 -20.0°
Sets 21:54:52 0° 5° (N) 2,881 5.4 -20.5°
